TimeCST,TemperatureF,Dew PointF,Humidity,Sea Level PressureIn,VisibilityMPH,Wind Direction,Wind SpeedMPH,Gust SpeedMPH,PrecipitationIn,Events,Conditions,WindDirDegrees,DateUTC
12:52 AM,19.0,14.0,81,30.14,5.0,NW,8.1,-,N/A,,Haze,310,2014-02-02 06:52:00
1:52 AM,18.0,14.0,84,30.15,5.0,West,5.8,-,N/A,,Mostly Cloudy,280,2014-02-02 07:52:00
2:31 AM,17.1,12.9,84,30.12,6.0,NW,5.8,-,N/A,,Mostly Cloudy,310,2014-02-02 08:31:00
2:52 AM,17.1,12.0,81,30.16,7.0,NW,6.9,-,N/A,,Scattered Clouds,310,2014-02-02 08:52:00
3:18 AM,18.0,12.9,81,30.13,7.0,NNW,9.2,-,N/A,,Mostly Cloudy,330,2014-02-02 09:18:00
3:31 AM,18.0,12.0,78,30.13,7.0,NNW,12.7,-,N/A,,Scattered Clouds,340,2014-02-02 09:31:00
3:52 AM,17.1,10.0,74,30.17,8.0,NNW,11.5,-,N/A,,Clear,330,2014-02-02 09:52:00
4:52 AM,10.9,5.0,77,30.19,8.0,NW,8.1,-,N/A,,Clear,320,2014-02-02 10:52:00
5:52 AM,6.1,1.0,80,30.22,7.0,NNW,10.4,-,N/A,,Clear,330,2014-02-02 11:52:00
6:52 AM,3.9,-0.0,84,30.25,6.0,NW,8.1,-,N/A,,Clear,320,2014-02-02 12:52:00
7:52 AM,1.9,-2.0,83,30.27,5.0,WNW,8.1,-,N/A,,Clear,300,2014-02-02 13:52:00
8:52 AM,3.0,-0.0,87,30.30,5.0,NW,5.8,-,N/A,,Clear,320,2014-02-02 14:52:00
9:52 AM,8.1,3.9,83,30.32,5.0,West,3.5,-,N/A,,Clear,260,2014-02-02 15:52:00
10:52 AM,10.0,6.1,84,30.33,5.0,NW,8.1,-,N/A,,Clear,310,2014-02-02 16:52:00
11:52 AM,10.9,7.0,84,30.30,5.0,NW,11.5,-,N/A,,Clear,310,2014-02-02 17:52:00
12:52 PM,12.9,7.0,77,30.29,5.0,NW,10.4,-,N/A,,Haze,310,2014-02-02 18:52:00
1:52 PM,12.9,7.0,77,30.31,5.0,WNW,10.4,-,N/A,,Haze,290,2014-02-02 19:52:00
2:52 PM,12.9,6.1,74,30.33,5.0,WNW,10.4,-,N/A,,Haze,290,2014-02-02 20:52:00
3:52 PM,10.9,5.0,77,30.34,5.0,WNW,9.2,-,N/A,,Haze,300,2014-02-02 21:52:00
4:52 PM,9.0,1.9,73,30.34,7.0,NW,6.9,-,N/A,,Clear,320,2014-02-02 22:52:00
5:52 PM,3.9,-2.0,76,30.35,9.0,NNW,4.6,-,N/A,,Clear,340,2014-02-02 23:52:00
6:52 PM,1.9,-2.9,80,30.35,9.0,NW,3.5,-,N/A,,Clear,310,2014-02-03 00:52:00
7:52 PM,-2.9,-7.1,82,30.36,7.0,South,3.5,-,N/A,,Clear,190,2014-02-03 01:52:00
8:52 PM,-11.0,-16.1,78,30.37,8.0,Calm,Calm,-,N/A,,Clear,0,2014-02-03 02:52:00
9:52 PM,-9.0,-11.9,87,30.35,7.0,WNW,6.9,-,N/A,,Clear,290,2014-02-03 03:52:00
10:52 PM,-7.1,-11.9,79,30.36,7.0,WNW,3.5,-,N/A,,Clear,300,2014-02-03 04:52:00
11:52 PM,-13.0,-16.1,86,30.36,7.0,NW,6.9,-,N/A,,Clear,310,2014-02-03 05:52:00